Weather History for KPKV - May, 2014

Change the Weather History Date:

Friday, May 2, 2014

  Actual Average (KVCT) Record (KVCT)
Temperature  
Mean Temperature 64 °F 74 °F  
Max Temperature 78 °F 84 °F 101 °F (1964)
Min Temperature 50 °F 64 °F 45 °F (1903)
Degree Days  
Heating Degree Days 2 0  
Month to date heating degree days 0  
Since 1 July heating degree days 1248  
Cooling Degree Days 0 9  
Month to date cooling degree days 18  
Year to date cooling degree days 307  
Growing Degree Days 14 (Base 50)    
Moisture  
Dew Point 47 °F    
Average Humidity 57    
Maximum Humidity 85    
Minimum Humidity 25    
Precipitation  
Precipitation 0.00 in 0.15 in 2.65 in (2000)
Month to date precipitation 0.30  
Year to date precipitation 10.49  
Snow  
Snow 0.00 in - - ()
Month to date snowfall  
Since 1 July snowfall  
Snow Depth -    
Sea Level Pressure  
Sea Level Pressure 30.06 in    
Wind  
Wind Speed 5 mph (WSW)    
Max Wind Speed 12 mph    
Max Gust Speed 16 mph    
Visibility 10 miles    
Events Rain    
T = Trace of Precipitation, MM = Missing Value Source: NWS Daily Summary

Daily Weather History Graph

Daily Weather History Graph

Search for Another Location

Airport or City:

Trip Planner

Search our weather history database for the weather conditions in past years. The results will help you decide how hot, cold, wet, or windy it might be!

Date:

Astronomy

May. 02, 2014 Rise Set
Actual Time 6:45 AM CDT 8:02 PM CDT
Civil Twilight 6:20 AM CDT 8:27 PM CDT
Nautical Twilight 5:50 AM CDT 8:57 PM CDT
Astronomical Twilight 5:19 AM CDT 9:28 PM CDT
Moon 9:28 AM CDT (5/2) 11:21 PM CDT (5/2)
Length of Visible Light 14h 07m
Length of Day
13h 17m
Waxing Crescent, 12% of the Moon is Illuminated
May 2
Waxing Crescent
May 6
First Quarter
May 14
Full
May 21
Last Quarter
May 28
New

Hourly Weather History & Observations

Time (CDT) Temp. Dew Point Humidity Pressure Visibility Wind Dir Wind Speed Gust Speed Precip Events Conditions
12:15 AM 54.7 °F 46.4 °F 74% 30.06 in 10.0 mi SW 3.5 mph - N/A   Clear
12:35 AM 54.0 °F 46.0 °F 75% 30.06 in 10.0 mi South 4.6 mph - N/A   Clear
12:55 AM 54.1 °F 46.0 °F 74% 30.05 in 10.0 mi SSW 4.6 mph - N/A   Clear
1:15 AM 53.6 °F 45.7 °F 75% 30.05 in 10.0 mi SSW 3.5 mph - N/A   Clear
1:35 AM 53.2 °F 45.5 °F 75% 30.05 in 10.0 mi SSW 4.6 mph - N/A   Clear
1:55 AM 52.0 °F 44.8 °F 76% 30.05 in 10.0 mi SSW 3.5 mph - N/A   Clear
2:15 AM 52.0 °F 45.1 °F 77% 30.05 in 10.0 mi West 3.5 mph - N/A   Clear
2:35 AM 52.0 °F 45.5 °F 79% 30.06 in 10.0 mi West 5.8 mph - N/A   Clear
2:55 AM 50.5 °F 45.3 °F 82% 30.06 in 10.0 mi West 4.6 mph - N/A   Clear
3:15 AM 50.5 °F 46.2 °F 85% 30.07 in 10.0 mi WSW 5.8 mph - N/A   Clear
3:35 AM 52.3 °F 47.3 °F 83% 30.08 in 10.0 mi West 5.8 mph - N/A   Clear
3:55 AM 54.1 °F 47.8 °F 79% 30.08 in 10.0 mi Calm Calm - N/A   Clear
4:15 AM 53.6 °F 48.0 °F 81% 30.06 in 10.0 mi NNW 4.6 mph - N/A   Clear
4:35 AM 54.1 °F 48.4 °F 81% 30.07 in 10.0 mi WNW 4.6 mph - N/A   Clear
4:55 AM 54.9 °F 48.6 °F 79% 30.07 in 10.0 mi WNW 4.6 mph - N/A   Mostly Cloudy
5:15 AM 55.4 °F 48.6 °F 78% 30.07 in 10.0 mi WNW 4.6 mph - N/A   Overcast
5:35 AM 55.4 °F 48.7 °F 78% 30.07 in 10.0 mi Calm Calm - N/A   Overcast
5:55 AM 55.4 °F 49.8 °F 81% 30.07 in 10.0 mi SSW 4.6 mph - N/A Rain Light Rain
6:15 AM 55.6 °F 50.2 °F 82% 30.06 in 10.0 mi Calm Calm - N/A Rain Light Rain
6:35 AM 55.4 °F 50.5 °F 84% 30.08 in 10.0 mi NW 4.6 mph - N/A   Scattered Clouds
6:55 AM 55.6 °F 50.4 °F 83% 30.08 in 10.0 mi WNW 4.6 mph - N/A   Mostly Cloudy
7:15 AM 55.9 °F 50.4 °F 82% 30.08 in 10.0 mi WNW 3.5 mph - N/A   Scattered Clouds
7:35 AM 57.2 °F 50.4 °F 78% 30.09 in 10.0 mi WNW 4.6 mph - N/A   Clear
7:55 AM 59.0 °F 50.7 °F 74% 30.09 in 10.0 mi West 3.5 mph - N/A   Clear
8:15 AM 59.9 °F 50.4 °F 71% 30.09 in 10.0 mi WNW 4.6 mph - N/A   Clear
8:35 AM 61.2 °F 50.0 °F 67% 30.10 in 10.0 mi WNW 6.9 mph - N/A   Clear
8:55 AM 61.9 °F 50.2 °F 65% 30.10 in 10.0 mi WNW 6.9 mph - N/A   Clear
9:15 AM 63.3 °F 50.2 °F 62% 30.10 in 10.0 mi WNW 6.9 mph - N/A   Clear
9:35 AM 65.8 °F 50.9 °F 58% 30.10 in 10.0 mi West 5.8 mph - N/A   Clear
9:55 AM 68.0 °F 49.8 °F 52% 30.11 in 10.0 mi WNW 9.2 mph - N/A   Clear
10:15 AM 67.8 °F 50.5 °F 54% 30.11 in 10.0 mi WNW 8.1 mph - N/A   Clear
10:35 AM 69.1 °F 47.3 °F 46% 30.12 in 10.0 mi West 8.1 mph - N/A   Clear
10:55 AM 71.6 °F 45.3 °F 39% 30.11 in 10.0 mi NW 9.2 mph 16.1 mph N/A   Clear
11:15 AM 70.9 °F 43.2 °F 37% 30.11 in 10.0 mi WNW 10.4 mph - N/A   Clear
11:35 AM 70.7 °F 43.0 °F 37% 30.11 in 10.0 mi WNW 10.4 mph - N/A   Clear
11:55 AM 70.5 °F 42.8 °F 37% 30.11 in 10.0 mi NW 11.5 mph - N/A   Clear
12:15 PM 69.8 °F 41.2 °F 35% 30.10 in 10.0 mi West 6.9 mph - N/A   Scattered Clouds
12:35 PM 70.2 °F 42.1 °F 36% 30.09 in 10.0 mi WNW 8.1 mph - N/A   Mostly Cloudy
12:55 PM 71.6 °F 42.4 °F 35% 30.09 in 10.0 mi West 5.8 mph - N/A   Scattered Clouds
1:15 PM 72.5 °F 41.9 °F 33% 30.08 in 10.0 mi WNW 6.9 mph - N/A   Scattered Clouds
1:35 PM 72.0 °F 40.8 °F 32% 30.07 in 10.0 mi NW 5.8 mph - N/A   Scattered Clouds
1:55 PM 72.7 °F 41.7 °F 33% 30.06 in 10.0 mi West 4.6 mph - N/A   Clear
2:15 PM 74.3 °F 41.7 °F 31% 30.06 in 10.0 mi WNW 8.1 mph - N/A   Clear
2:35 PM 76.1 °F 39.0 °F 26% 30.05 in 10.0 mi WNW 6.9 mph - N/A   Clear
2:55 PM 76.5 °F 37.6 °F 25% 30.04 in 10.0 mi West 6.9 mph - N/A   Mostly Cloudy
3:15 PM 76.3 °F 38.8 °F 26% 30.03 in 10.0 mi West 4.6 mph - N/A   Mostly Cloudy
3:35 PM 76.8 °F 40.5 °F 27% 30.02 in 10.0 mi SW 3.5 mph - N/A   Scattered Clouds
3:55 PM 77.0 °F 40.1 °F 27% 30.01 in 10.0 mi WSW 6.9 mph - N/A   Scattered Clouds
4:15 PM 76.3 °F 40.5 °F 28% 30.01 in 10.0 mi Calm Calm - N/A   Scattered Clouds
4:35 PM 76.3 °F 41.0 °F 28% 30.00 in 10.0 mi South 4.6 mph - N/A   Mostly Cloudy
4:55 PM 77.0 °F 41.0 °F 28% 30.00 in 10.0 mi South 5.8 mph - N/A   Overcast
5:15 PM 76.5 °F 40.3 °F 27% 30.00 in 10.0 mi South 4.6 mph - N/A   Overcast
5:35 PM 76.6 °F 40.5 °F 27% 30.00 in 10.0 mi WSW 8.1 mph - N/A   Mostly Cloudy
5:55 PM 77.4 °F 40.8 °F 27% 29.99 in 10.0 mi South 6.9 mph - N/A   Mostly Cloudy
6:15 PM 77.9 °F 40.8 °F 27% 29.99 in 10.0 mi South 6.9 mph - N/A   Mostly Cloudy
6:55 PM 75.7 °F 40.5 °F 28% 29.99 in 10.0 mi South 6.9 mph - N/A   Clear
7:15 PM 73.6 °F 45.5 °F 37% 29.99 in 10.0 mi South 10.4 mph - N/A   Clear
7:35 PM 71.6 °F 47.7 °F 43% 29.99 in 10.0 mi South 9.2 mph - N/A   Clear
7:55 PM 69.8 °F 49.3 °F 48% 30.00 in 10.0 mi South 9.2 mph - N/A   Clear
8:15 PM 67.5 °F 49.1 °F 52% 30.00 in 10.0 mi SSE 6.9 mph - N/A   Clear
8:35 PM 66.2 °F 50.0 °F 56% 30.01 in 10.0 mi South 6.9 mph - N/A   Clear
8:55 PM 65.7 °F 51.3 °F 60% 30.01 in 10.0 mi South 8.1 mph - N/A   Clear
9:15 PM 64.6 °F 52.5 °F 65% 30.02 in 10.0 mi South 8.1 mph - N/A   Clear
9:35 PM 63.3 °F 52.9 °F 69% 30.03 in 10.0 mi South 8.1 mph - N/A   Clear
9:55 PM 62.6 °F 53.2 °F 71% 30.03 in 10.0 mi South 6.9 mph - N/A   Clear
10:15 PM 62.6 °F 54.1 °F 74% 30.04 in 10.0 mi SSW 8.1 mph - N/A   Clear
10:35 PM 62.6 °F 54.9 °F 76% 30.04 in 10.0 mi SSW 8.1 mph - N/A   Clear
10:55 PM 62.8 °F 55.2 °F 76% 30.05 in 10.0 mi SSW 6.9 mph - N/A   Clear
11:15 PM 61.5 °F 55.2 °F 80% 30.05 in 10.0 mi South 5.8 mph - N/A   Clear
11:35 PM 60.1 °F 54.7 °F 82% 30.05 in 10.0 mi SSW 5.8 mph - N/A   Clear
11:55 PM 60.6 °F 55.0 °F 82% 30.05 in 10.0 mi SSW 5.8 mph - N/A   Clear